[[{"header":{"parameterUnit":"m.s-1","parameterCategory":1,"la1":30.2991,"la2":30.254,"lo1":-89.0895,"lo2":-89.0444,"dy":0.0017,"dx":0.0017,"nx":28,"ny":28,"refTime":"2024-04-28T09:00:00:Z","depth":0,"parameterNumber":2,"parameterNumberName":"U-component_of_WINDS"},"data":[0,0,0,0,0,0,0,0,0,0,0,0,0,0,0,0,0,0,0,0,0,0,0,0,0,0,0,0,0,0,0,0,0,0,0,0,0,0,0,0,0,0,0,0,0,0,0,0,0,0,0,0,0,0,0,0,0,0,-8.8652,-8.8653,0,-8.8814,-8.8816,-8.8817,-8.8764,-8.876,-8.8757,-8.8753,-8.8915,-8.8922,-8.893,0,0,0,0,0,0,0,0,0,0,0,0,0,-8.8291,-8.8298,-8.8651,-8.8653,-8.8655,-8.8813,-8.8816,-8.8818,-8.8764,-8.876,-8.8756,-8.8752,-8.8912,-8.8921,-8.8931,0,0,0,0,0,0,0,0,0,0,0,0,0,-8.845,-8.83,-8.8651,-8.8648,-8.8649,-8.8813,-8.8816,-8.8818,-8.8765,-8.876,-8.8755,-8.875,-8.891,-8.8921,-8.8932,-8.9107,0,0,-8.8966,-8.8971,0,0,0,0,0,0,0,0,-8.8441,-8.8463,-8.8646,-8.8648,-8.865,-8.8763,-8.8748,-8.8915,-8.8767,-8.8721,-8.8753,-8.8747,-8.8868,-8.8883,-8.8925,-8.9115,-8.9121,-8.8967,-8.8974,-8.8979,-8.8982,0,0,0,0,0,0,0,-8.843,-8.8456,-8.8715,-8.8649,-8.8651,-8.8637,-8.8654,-8.8779,-8.8822,-8.8725,-8.8721,-8.8741,-8.8868,-8.8914,-8.8928,-8.9124,-8.8967,-8.8977,-8.8984,-8.8989,-8.9465,-8.947,0,0,0,0,0,0,-8.8419,-8.8447,-8.871,-8.872,-8.8531,-8.8648,-8.8667,-8.8732,-8.8821,-8.8829,-8.8746,-8.8738,-8.8897,-8.8915,-8.8933,-8.9142,-8.8979,-8.899,-8.8996,-8.9459,-8.9466,-8.9472,0,0,0,0,0,0,-8.8411,-8.8443,-8.8704,-8.8583,-8.8615,-8.866,-8.8734,-8.8738,-8.8783,-8.8837,-8.8843,-8.8784,-8.8894,-8.8918,-8.9064,-8.9147,-8.8995,-8.9005,-8.9452,-8.9461,-8.9469,-8.9563,0,0,0,0,0,0,-8.8401,-8.844,-8.8508,-8.8585,-8.8622,-8.8833,-8.8739,-8.8745,-8.8804,-8.8795,-8.8875,-8.8883,-8.8891,-8.9048,-8.9076,-8.916,-8.9014,-8.9445,-8.9456,-8.9466,-8.9552,-8.9574,-8.9592,0,0,0,0,0,-8.8388,-8.8527,-8.8511,-8.8543,-8.8707,-8.8838,-8.8859,-8.8867,-8.8811,-8.8878,-8.8913,-8.888,-8.9135,-8.9063,-8.9094,-8.9183,-8.9439,-8.9453,-8.9465,-8.9543,-8.9569,-8.9591,0,0,0,0,0,0,-8.8456,-8.8537,-8.852,-8.8689,-8.8757,-8.8828,-8.8913,-8.8895,-8.8979,-8.8967,-8.8973,-8.8992,-8.9142,-8.9178,-8.9097,-8.9357,-8.9278,-8.9298,-8.9327,-8.9352,-8.9372,-8.9358,-8.9023,0,0,0,0,0,-8.8491,-8.8592,-8.8656,-8.8798,-8.8834,-8.8869,-8.8925,-8.8927,-8.8997,-8.9025,-8.907,-8.9138,-8.9233,-8.9296,-8.9387,-8.9559,-8.9574,-8.9636,-8.9656,-8.9672,-8.9687,-8.978,-8.9807,-8.9515,-8.9515,-8.9515,0,0,-8.8563,-8.862,-8.8682,-8.8814,-8.8866,-8.8969,-8.8893,-8.9004,-8.9079,-8.9041,-8.9182,-8.9218,-8.9295,-8.9455,-8.9528,-8.9489,-8.9772,-8.9689,-8.9701,-8.9708,-8.9796,-8.9823,-8.9848,-8.9524,-8.9523,-8.9521,0,0,-8.8746,-8.8801,-8.8924,-8.8979,-8.9062,-8.9084,-8.9114,-8.919,-8.9212,-8.9355,-8.9328,-8.9418,-8.9582,-8.9637,-8.9687,-8.9895,-8.9867,-8.9924,-9.0025,-9.0115,-9.0138,-9.0158,-9.0229,-9.0255,-8.9941,-8.9941,-8.9941,0,-8.8824,-8.8978,-8.8989,-8.9103,-8.9161,-8.9134,-8.9258,-8.9311,-8.9418,-8.9458,-8.9415,-8.9621,-8.9671,-8.9843,-8.9893,-8.9936,-8.9968,-8.9912,-9.0134,-9.0155,-9.0174,-9.0241,-9.0268,-8.9947,-8.9946,-8.9946,-8.9945,0,-8.9069,-8.9177,-8.9267,-8.9372,-8.9441,-8.9559,-8.9587,-8.9655,-8.9651,-8.9678,-8.9823,-8.9883,-8.9984,-9.0027,-9.0024,-9.0198,-9.0172,-9.0132,-9.0052,-9.0207,-9.027,-9.0297,-8.9956,-8.9954,-8.9952,-8.995,0,0,-8.9294,-8.9407,-8.9439,-8.9486,-8.9577,-8.9659,-8.9777,-8.9878,-8.9935,-9.0012,-9.0108,-9.025,-9.0214,-9.027,-9.0274,-9.0354,-9.0511,-9.0304,-9.0306,-9.0337,-9.0704,-9.0729,-9.0759,-9.0495,-9.05,-9.0505,-9.0696,0,-8.9481,-8.9688,-8.9702,-8.9889,-8.9987,-8.9965,-9.0067,-9.0133,-9.0163,-9.025,-9.0282,-9.038,-9.0327,-9.0361,-9.044,-9.0475,-9.0583,-9.0462,-9.0582,-9.0586,-9.0558,-9.0793,-9.0821,-9.0998,-9.0721,-9.0725,-9.0728,0,-8.9725,-8.981,-9.0007,-9.0084,-9.0125,-9.0217,-9.0311,-9.0396,-9.047,-9.0486,-9.0551,-9.0544,-9.0663,-9.0584,-9.0747,-9.0664,-9.0715,-9.074,-9.0747,-9.0754,-9.0663,-9.0802,-9.1055,-9.108,-9.0768,-9.0765,-9.0762,0,-8.9865,-9.0029,-9.0167,-9.0209,-9.0303,-9.0368,-9.0409,-9.0479,-9.0539,-9.0622,-9.0661,-9.0756,-9.0807,-9.0881,-9.0899,-9.084,-9.1062,-9.0984,-9.1075,-9.1075,-9.1118,-9.1114,-9.1378,-9.116,-9.1159,-9.1159,-9.1158,0,-9.0069,-9.0189,-9.0231,-9.0315,-9.0449,-9.0466,-9.0598,-9.0635,-9.0698,-9.0788,-9.0777,-9.0862,-9.0884,-9.0973,-9.0989,-9.112,-9.1144,-9.1158,-9.116,-9.1157,-9.1154,-9.1186,-9.1172,-9.1166,-9.1164,-9.1163,-9.1162,0,-9.0245,-9.0278,-9.0427,-9.0505,-9.0528,-9.0623,-9.0688,-9.0769,-9.0799,-9.0914,-9.0941,-9.0987,-9.1091,-9.1119,-9.1243,-9.1254,-9.1407,-9.14,-9.1382,-9.138,-9.1469,-9.1458,-9.1758,-9.1797,-9.1557,-9.156,-9.1561,0,-9.037,-9.0462,-9.0551,-9.0612,-9.0657,-9.0755,-9.0817,-9.0838,-9.0902,-9.0995,-9.1064,-9.1168,-9.1251,-9.1419,-9.1462,-9.1557,-9.1549,-9.1648,-9.1562,-9.1556,-9.1545,-9.1538,-9.1546,-9.1662,-9.1664,-9.1666,-9.1668,0,-9.0589,-9.0601,-9.0692,-9.0789,-9.0864,-9.0941,-9.1014,-9.1064,-9.1095,-9.1169,-9.1276,-9.1341,-9.1469,-9.1571,-9.1668,-9.1709,-9.1693,-9.1696,-9.1721,-9.1715,-9.17,-9.1706,-9.1421,-9.1687,-9.1685,-9.1684,-9.1683,-9.1682,-9.074,-9.0821,-9.0896,-9.0997,-9.1055,-9.1125,-9.1204,-9.1245,-9.1335,-9.1442,-9.1449,-9.1565,-9.1638,-9.1766,-9.1814,-9.1904,-9.1874,-9.1912,-9.192,-9.1928,-9.1934,-9.169,-9.1922,-9.1922,-9.1921,-9.1921,-9.1921,0,-9.0954,-9.1002,-9.1096,-9.12,-9.128,-9.1262,-9.1343,-9.141,-9.1512,-9.1583,-9.1666,-9.1789,-9.1888,-9.1941,-9.2039,-9.2101,-9.2096,-9.2126,-9.2119,-9.2128,-9.1957,-9.1923,-9.2128,-9.2128,-9.2128,-9.2128,-9.2128,-9.2128,-9.1074,-9.1209,-9.1231,-9.1394,-9.1441,-9.1555,-9.1603,-9.1667,-9.1723,-9.1861,-9.1944,-9.1979,-9.2042,-9.2145,-9.2235,-9.2248,-9.2283,-9.2316,-9.2324,-9.2162,-9.214,-9.212,-9.2088,-9.2324,-9.2325,-9.2488,-9.2489,-9.249]},{"header":{"parameterUnit":"m.s-1","parameterCategory":1,"la1":30.2991,"la2":30.254,"lo1":-89.0895,"lo2":-89.0444,"dy":0.0017,"dx":0.0017,"nx":28,"ny":28,"refTime":"2024-04-28T09:00:00:Z","depth":0,"parameterNumber":3,"parameterNumberName":"V-component_of_WINDS"},"data":[0,0,0,0,0,0,0,0,0,0,0,0,0,0,0,0,0,0,0,0,0,0,0,0,0,0,0,0,0,0,0,0,0,0,0,0,0,0,0,0,0,0,0,0,0,0,0,0,0,0,0,0,0,0,0,0,0,0,4.633,4.633,0,4.6349,4.635,4.635,4.6296,4.6294,4.6292,4.6291,4.6308,4.631,4.6312,0,0,0,0,0,0,0,0,0,0,0,0,0,4.6243,4.6245,4.633,4.633,4.633,4.6349,4.635,4.635,4.6296,4.6294,4.6292,4.629,4.6307,4.6309,4.6312,0,0,0,0,0,0,0,0,0,0,0,0,0,4.6274,4.6246,4.633,4.6306,4.6304,4.6349,4.635,4.635,4.6296,4.6294,4.6291,4.6289,4.6306,4.6309,4.6312,4.6381,0,0,4.6321,4.6323,0,0,0,0,0,0,0,0,4.6272,4.6277,4.6309,4.6307,4.6305,4.6318,4.6325,4.636,4.6297,4.6299,4.6291,4.6288,4.6313,4.6315,4.6324,4.6382,4.6383,4.6322,4.6324,4.6325,4.6326,0,0,0,0,0,0,0,4.627,4.6276,4.6337,4.6309,4.6307,4.6293,4.6295,4.6332,4.632,4.6299,4.6295,4.6298,4.6311,4.6321,4.6324,4.6383,4.6322,4.6324,4.6326,4.6327,4.6499,4.6501,0,0,0,0,0,0,4.6271,4.6274,4.6337,4.6338,4.6282,4.6297,4.6299,4.6316,4.6319,4.6317,4.63,4.6295,4.6318,4.6321,4.6325,4.6406,4.6325,4.6328,4.6329,4.6496,4.6499,4.6502,0,0,0,0,0,0,4.627,4.6277,4.6336,4.6305,4.6312,4.6301,4.6321,4.6318,4.6328,4.632,4.6318,4.6313,4.6316,4.632,4.6368,4.6405,4.6329,4.6332,4.6493,4.6497,4.6501,4.6568,0,0,0,0,0,0,4.6267,4.6277,4.6303,4.6306,4.6313,4.6379,4.6323,4.632,4.6334,4.6328,4.6331,4.633,4.6314,4.6364,4.6371,4.6408,4.6334,4.6489,4.6495,4.65,4.6563,4.6574,4.6584,0,0,0,0,0,4.6265,4.6321,4.6305,4.6313,4.6346,4.6382,4.6386,4.6367,4.6337,4.6363,4.6358,4.633,4.6401,4.6369,4.6377,4.6415,4.6487,4.6493,4.6499,4.6558,4.6572,4.6584,0,0,0,0,0,0,4.632,4.632,4.6303,4.6362,4.6373,4.6372,4.6404,4.6383,4.6401,4.6395,4.6371,4.6372,4.6424,4.6425,4.6389,4.6483,4.6438,4.6446,4.648,4.6494,4.6504,4.6502,4.6337,0,0,0,0,0,4.634,4.637,4.6368,4.642,4.6426,4.6415,4.643,4.6415,4.6424,4.6428,4.6427,4.6437,4.6461,4.6478,4.65,4.6563,4.6563,4.6594,4.6605,4.6613,4.662,4.6654,4.6668,4.6523,4.6523,4.6523,0,0,4.638,4.6384,4.6403,4.6431,4.6438,4.6468,4.6419,4.6453,4.6475,4.6433,4.6478,4.6478,4.6487,4.6543,4.6568,4.6545,4.6661,4.6621,4.6628,4.663,4.6662,4.6676,4.6688,4.6527,4.6526,4.6525,0,0,4.6468,4.6474,4.6519,4.6527,4.6538,4.6531,4.6542,4.6546,4.6544,4.659,4.6559,4.6585,4.6628,4.6636,4.6645,4.674,4.6714,4.6748,4.6803,4.6837,4.6849,4.6859,4.6892,4.6904,4.6755,4.6755,4.6755,0,4.6516,4.6562,4.6544,4.6581,4.6594,4.656,4.6604,4.6613,4.663,4.664,4.6615,4.6669,4.6672,4.673,4.6754,4.6763,4.6774,4.6747,4.6849,4.6858,4.6867,4.6899,4.6912,4.6759,4.6759,4.6758,4.6758,0,4.662,4.6653,4.6687,4.6707,4.6724,4.6765,4.6753,4.6772,4.6757,4.6752,4.6799,4.6803,4.6826,4.6839,4.6823,4.6895,4.6881,4.6853,4.6807,4.6886,4.6915,4.6927,4.6765,4.6764,4.6762,4.6761,0,0,4.6741,4.6753,4.6766,4.6775,4.6786,4.681,4.685,4.6874,4.6891,4.6905,4.6937,4.6976,4.6951,4.6962,4.6947,4.6977,4.7052,4.6945,4.6945,4.6965,4.7131,4.7151,4.7166,4.7036,4.7038,4.704,4.713,0,4.6828,4.6897,4.6884,4.6951,4.6981,4.695,4.6984,4.6995,4.6992,4.7017,4.7013,4.7041,4.7005,4.7012,4.704,4.7037,4.7085,4.703,4.7065,4.7066,4.7062,4.7181,4.7202,4.7287,4.7142,4.7144,4.7145,0,4.6938,4.6958,4.703,4.7038,4.705,4.7081,4.7102,4.7127,4.7138,4.7134,4.7148,4.7129,4.7168,4.7124,4.7177,4.714,4.7154,4.7155,4.7158,4.7159,4.7109,4.7185,4.7314,4.7327,4.7163,4.7161,4.716,0,4.702,4.7064,4.7113,4.7122,4.7132,4.7155,4.7161,4.717,4.7186,4.7204,4.7214,4.7237,4.7249,4.7267,4.7254,4.7223,4.731,4.7264,4.7307,4.7307,4.7325,4.7324,4.7457,4.7336,4.7336,4.7335,4.7335,0,4.7117,4.7162,4.715,4.718,4.7229,4.7213,4.7262,4.7263,4.7272,4.7301,4.7276,4.7303,4.7285,4.7312,4.7302,4.7348,4.7353,4.7351,4.7347,4.7353,4.7353,4.736,4.7353,4.7339,4.7338,4.7337,4.7337,0,4.7216,4.721,4.726,4.7268,4.727,4.7306,4.7312,4.7339,4.7336,4.7373,4.7381,4.7375,4.7405,4.7394,4.7425,4.7419,4.7477,4.7467,4.7474,4.7471,4.7514,4.751,4.7655,4.7674,4.7541,4.7543,4.7544,0,4.7278,4.7312,4.7324,4.7342,4.735,4.738,4.7397,4.7383,4.7401,4.7418,4.7444,4.7472,4.7493,4.7542,4.754,4.7564,4.7553,4.7603,4.7556,4.7561,4.7553,4.7551,4.7554,4.7611,4.7613,4.7614,4.7615,0,4.7389,4.7385,4.7411,4.7437,4.7458,4.7477,4.7493,4.751,4.7497,4.7519,4.755,4.7567,4.76,4.7628,4.765,4.7654,4.7633,4.763,4.7641,4.7646,4.7649,4.7648,4.7498,4.7626,4.7625,4.7624,4.7624,4.7623,4.7471,4.75,4.7514,4.7544,4.7555,4.7572,4.7599,4.76,4.7626,4.7653,4.7643,4.7679,4.769,4.7718,4.7726,4.7753,4.7734,4.775,4.7754,4.7758,4.7763,4.7646,4.7757,4.7757,4.7757,4.7756,4.7756,0,4.7581,4.7589,4.7617,4.7642,4.7666,4.7646,4.7663,4.7684,4.7716,4.773,4.7752,4.7789,4.7816,4.7817,4.7843,4.7865,4.7855,4.7872,4.7869,4.7871,4.7779,4.7767,4.7879,4.7879,4.7879,4.7879,4.7879,4.7879,4.7641,4.769,4.7688,4.7742,4.7749,4.7785,4.7797,4.7812,4.7823,4.7865,4.7889,4.789,4.7899,4.7925,4.7949,4.7949,4.7959,4.7979,4.7975,4.7889,4.7877,4.7865,4.7854,4.7982,4.7982,4.8064,4.8065,4.8066]}]]